星链-5058 (STARLINK-5058 )

导读 | 豆包AI

STARLINK-5058是美国太空探索技术公司(SpaceX)星链互联网卫星星座中的一员,于2023年2月2日发射升空。星链项目旨在构建全球卫星互联网星座,该卫星加入星座网络后,为全球偏远地区、海洋空域提供低延迟、高速率的宽带互联网服务补充,助力提升星链星座的全球覆盖能力与服务稳定性。

基本信息
目录编号:
55456
目录名称:
STARLINK-5058
国际标识:
2023-015H
轨道中心:
EARTH
卫星名称:
星链-5058
卫星全名:
星链-5058 (STARLINK-5058 )
卫星状态:
在轨 (已飞行1183 天)
发射日期:
2023-02-02 UTC
国别 :
美国 (US)
星等 :
--
轨道信息
数据来源 国际轨道数据
星历时间: 2026-04-30T11:40:47+0800
12小时前
查看轨道信息
半长轴: 6861.198km
偏心率: 0.0001215
轨道倾角: 43.003°
近地点辐角 276.449°
升交点赤经 38.011°
平近点角 83.622°
近地点: 482.227km
远地点: 483.895km
周期: 94.267分钟
每日圈数: 15.275762
详细信息
固有亮度:
5
最大亮度:
2.5
卫星平台:
Starlink v1.5
覆盖范围:
全球
运营商:
太空探索技术公司
运营商所在国:
美国
制造商(研发单位):
太空探索技术公司
制造商所在国:
美国
使用方式:
暂无
卫星简介
星链(Starlink)计划是由太空探索技术公司(SpaceX)提出的一个巨型低轨卫星互联网星座项目,计划在2019年至2024年间在太空搭建由约1.2万颗卫星组成的“星链”网络,其中1584颗将部署在地球上空550千米处的近地轨道,并从2020年开始工作。该卫星仍在工作。
2D轨道图
3D轨道图
轨道高度分析图
轨道倾角分析图
轨道综合分析图
查看轨道综合分析图